GSAT0226 (GALILEO 31)

Last updated on Sun Dec 14 2025 00:02:36 GMT+0000 (Coordinated Universal Time)

1 61183U 24167B 25346.85148941 .00000019 00000+0 00000+0 0 9997 2 61183 55.2391 226.4330 0000842 113.0334 68.3038 1.70473602 7673
UTC large
Height (km)
Speed (km/s)
/
Latitude / Longitude
Inclination (degrees)
Orbital Period (minutes)
Azimuth
Elevation
Range (km)
Doppler Factor

Next 0 passes for location: London (51.5072 / 0.1276)

Sorry there are no passes over London.